Orbital Elements at Epoch 2459200.5 (2020-Dec-17.0) TDB
Reference: JPL 13 (heliocentric ecliptic J2000)
Element | Value | Uncertainty (1-sigma) | Units |
e | .1003211074350596 | 4.9212e-08 | |
a | 3.10071781010905 | 2.8868e-08 | au |
q | 2.789650365555297 | 1.5232e-07 | au |
i | 12.1300069588715 | 5.4738e-06 | deg |
node | 33.79128187034478 | 2.385e-05 | deg |
peri | 181.0908326422962 | 3.5818e-05 | deg |
M | 106.729357007101 | 2.5099e-05 | deg |
tp | 2458609.247234886668 (2019-May-05.74723489) | 0.00014068 | TDB |
period | 1994.305984871979 5.46 | 2.785e-05 7.625e-08 | d yr |
n | .1805139245084849 | 2.5209e-09 | deg/d |
Q | 3.411785254662802 | 3.1764e-08 | au |
|
| | Orbit Determination Parameters
Additional Information
|